Overview Statistics Trail Chart Weather Telemetry Raw packets
 

This is the latest recevied weather packets stored in our database for station/object SQ9SMC-13. If no packets are shown the sender has not sent any weather packets the latest 10 day(s).

<< 63 64 65 66 67 68 69 >>
Time Temp. Humidity Pressure Rain* Wind** Luminosity Snow
1777271105 8.33° C 42% 1025.3 hPa 0 mm - 240 W/m² -
1777270805 7.78° C 45% 1025.5 hPa 0 mm - 231 W/m² -
1777270503 7.22° C 46% 1025.3 hPa 0 mm - 222 W/m² -
1777270202 7.22° C 48% 1025.4 hPa 0 mm - 211 W/m² -
1777269905 6.67° C 49% 1025.6 hPa 0 mm - 197 W/m² -
1777269603 6.11° C 50% 1025.2 hPa 0 mm - 184 W/m² -
1777269303 5.56° C 51% 1025.4 hPa 0 mm - 173 W/m² -
1777269003 5.56° C 51% 1025.2 hPa 0 mm - 161 W/m² -
1777268703 5.56° C 53% 1025.1 hPa 0 mm - 150 W/m² -
1777268403 5° C 55% 1025.3 hPa 0 mm - 140 W/m² -
1777268104 5° C 56% 1025.2 hPa 0 mm - 130 W/m² -
1777267802 4.44° C 55% 1025.2 hPa 0 mm - 121 W/m² -
1777267504 3.89° C 60% 1025.2 hPa 0 mm - 110 W/m² -
1777267203 3.89° C 60% 1025.2 hPa 0 mm - 101 W/m² -
1777266904 3.33° C 68% 1025.2 hPa 0 mm - 91 W/m² -
1777266604 2.78° C 73% 1025.1 hPa 0 mm - 81 W/m² -
1777266304 2.22° C 75% 1025.2 hPa 0 mm - 69 W/m² -
1777266003 1.67° C 76% 1025.3 hPa 0 mm - 57 W/m² -
1777265702 1.11° C 76% 1025 hPa 0 mm - 50 W/m² -
1777265404 1.67° C 73% 1025.1 hPa 0 mm - 46 W/m² -
1777265103 1.11° C 76% 1025 hPa 0 mm - 45 W/m² -
1777264803 0° C 79% 1025 hPa 0 mm - 55 W/m² -
1777264503 0° C 80% 1025.3 hPa 0 mm - 50 W/m² -
1777264203 -0.56° C 80% 1025.1 hPa 0 mm - 44 W/m² -
1777263902 -1.11° C 85% 1025 hPa 0 mm - 39 W/m² -

* Rain latest hour (hover to see other rain measurements)
** Current wind speed in m/s (hover to see current wind gust speed)